Weather History for Lakeland Region, FL

Change the Weather History Date:

Tuesday, July 9, 2013

  Actual Average Record
Temperature  
Mean Temperature 81 °F -  
Max Temperature 91 °F 88 °F 97 °F (1995)
Min Temperature 71 °F 71 °F 71 °F (1999)
Cooling Degree Days 16    
Growing Degree Days 31 (Base 50)    
Moisture  
Dew Point 70 °F    
Average Humidity 76    
Maximum Humidity 100    
Minimum Humidity 38    
Precipitation  
Precipitation 0.00 in - - ()
Sea Level Pressure  
Sea Level Pressure 30.14 in    
Wind  
Wind Speed 4 mph (East)    
Max Wind Speed 13 mph    
Max Gust Speed 21 mph    
Visibility 12 miles    
Events      
Averages and records for this station are not official NWS values.
T = Trace of Precipitation, MM = Missing Value Source: NWS Daily Summary

Daily Weather History Graph

Daily Weather History Graph

Search for Another Location

Airport:

Trip Planner

Search our weather history database for the weather conditions in past years. The results will help you decide how hot, cold, wet, or windy it might be!

Date:

Astronomy

Jul. 09, 2013 Rise Set
Actual Time 6:38 AM EDT 8:27 PM EDT
Civil Twilight 6:12 AM EDT 8:54 PM EDT
Nautical Twilight 5:40 AM EDT 9:25 PM EDT
Astronomical Twilight 5:06 AM EDT 9:59 PM EDT
Moon 7:51 AM EDT (7/9) 9:17 PM EDT (7/9)
Length of Visible Light 14h 41m
Length of Day
13h 49m
New Moon, 2% of the Moon is Illuminated
Jul 9
New Moon
Jul 15
First Quarter
Jul 22
Full
Jul 29
Last Quarter
Aug 6
New

Hourly Weather History & Observations

Time (EDT) Temp. Heat Index Dew Point Humidity Pressure Visibility Wind Dir Wind Speed Gust Speed Precip Events Conditions
12:15 AM 77.0 °F - 69.8 °F 78% 30.18 in 10.0 mi East 4.6 mph - N/A   Clear
12:35 AM 77.0 °F - 69.8 °F 78% 30.18 in 10.0 mi Calm Calm - N/A   Clear
12:55 AM 77.0 °F - 69.8 °F 78% 30.18 in - East 5.8 mph - N/A   Clear
1:15 AM 77.0 °F - 69.8 °F 78% 30.17 in 10.0 mi East 4.6 mph - N/A   Clear
1:35 AM 77.0 °F - 69.8 °F 78% 30.16 in 10.0 mi ESE 3.5 mph - N/A   Clear
1:55 AM 75.2 °F - 69.8 °F 83% 30.16 in 10.0 mi ESE 4.6 mph - N/A   Clear
2:15 AM 75.2 °F - 69.8 °F 83% 30.15 in 10.0 mi East 5.8 mph - N/A   Clear
2:35 AM 73.4 °F - 69.8 °F 88% 30.15 in 10.0 mi ESE 4.6 mph - N/A   Clear
2:55 AM 73.4 °F - 69.8 °F 88% 30.14 in 10.0 mi East 3.5 mph - N/A   Clear
3:15 AM 73.4 °F - 69.8 °F 88% 30.14 in 10.0 mi Calm Calm - N/A   Clear
3:35 AM 75.2 °F - 69.8 °F 83% 30.14 in 10.0 mi Calm Calm - N/A   Clear
3:55 AM 75.2 °F - 69.8 °F 83% 30.13 in 10.0 mi Calm Calm - N/A   Clear
4:15 AM 73.4 °F - 69.8 °F 88% 30.13 in 10.0 mi East 3.5 mph - N/A   Clear
4:35 AM 73.4 °F - 69.8 °F 88% 30.13 in 10.0 mi Calm Calm - N/A   Clear
4:55 AM 73.4 °F - 71.6 °F 94% 30.13 in 10.0 mi Calm Calm - N/A   Clear
5:15 AM 71.6 °F - 69.8 °F 94% 30.13 in 10.0 mi Calm Calm - N/A   Clear
5:35 AM 73.4 °F - 69.8 °F 88% 30.14 in 10.0 mi Calm Calm - N/A   Clear
5:50 AM 73.4 °F - 71.6 °F 94% 30.14 in 7.0 mi Calm Calm - N/A   Clear
5:55 AM 73.4 °F - 71.6 °F 94% 30.14 in 10.0 mi Calm Calm - N/A   Clear
6:15 AM 71.6 °F - 69.8 °F 94% 30.14 in 10.0 mi NNW 3.5 mph - N/A   Clear
6:35 AM 71.6 °F - 71.6 °F 100% 30.15 in 10.0 mi Calm Calm - N/A   Clear
6:50 AM 73.4 °F - 71.6 °F 94% 30.15 in 7.0 mi NNE 4.6 mph - N/A   Clear
7:54 AM 75.2 °F - 73.4 °F 94% 30.16 in 10.0 mi Calm Calm - N/A   Clear
9:50 AM 82.4 °F 86.3 °F 69.8 °F 66% 30.18 in 12.0 mi East 6.9 mph - N/A   Scattered Clouds
10:50 AM 84.2 °F 88.4 °F 69.8 °F 62% 30.18 in 15.0 mi NNE 4.6 mph - N/A   Mostly Cloudy
11:50 AM 86.0 °F 89.4 °F 68.0 °F 55% 30.19 in 15.0 mi East 4.6 mph - N/A   Mostly Cloudy
12:50 PM 89.6 °F 92.2 °F 66.2 °F 46% 30.18 in 15.0 mi ENE 10.4 mph - N/A   Mostly Cloudy
1:54 PM 89.6 °F 92.2 °F 66.2 °F 46% 30.16 in 20.0 mi ENE 8.1 mph - N/A   Mostly Cloudy
2:50 PM 89.6 °F 92.2 °F 66.2 °F 46% 30.14 in 15.0 mi NE 12.7 mph 16.1 mph N/A   Mostly Cloudy
3:50 PM 91.4 °F 92.1 °F 62.6 °F 38% 30.10 in 15.0 mi ENE 5.8 mph 16.1 mph N/A   Mostly Cloudy
4:50 PM 89.6 °F 94.7 °F 69.8 °F 52% 30.09 in 15.0 mi ESE 12.7 mph 20.7 mph N/A   Mostly Cloudy
5:55 PM 87.8 °F 92.6 °F 69.8 °F 55% 30.08 in 15.0 mi ESE 8.1 mph - N/A   Mostly Cloudy
6:51 PM 86.0 °F 90.4 °F 69.8 °F 58% 30.08 in 20.0 mi East 8.1 mph - N/A   Mostly Cloudy
7:53 PM 84.2 °F 88.4 °F 69.8 °F 62% 30.08 in 20.0 mi East 6.9 mph - N/A   Mostly Cloudy
8:50 PM 82.4 °F 86.3 °F 69.8 °F 66% 30.09 in 12.0 mi East 5.8 mph - N/A   Mostly Cloudy
9:50 PM 80.6 °F 83.9 °F 69.8 °F 70% 30.10 in 12.0 mi East 5.8 mph - N/A   Partly Cloudy
10:55 PM 78.8 °F - 69.8 °F 74% 30.12 in 10.0 mi Calm Calm - N/A   Scattered Clouds
11:15 PM 78.8 °F - 69.8 °F 74% 30.12 in 10.0 mi East 3.5 mph - N/A   Clear
11:35 PM 78.8 °F - 69.8 °F 74% 30.11 in 10.0 mi East 3.5 mph - N/A   Clear
11:55 PM 77.0 °F - 69.8 °F 78% 30.11 in 10.0 mi East 3.5 mph - N/A   Clear